Location: Ammerl�gen
(47.2167°N, 9.6000°E)
Time: 07:49:27
(UTC+00:00)

RS-15 - Pass Details

Date: 14 December 2021
Orbit: 1882 x 2162 km, 64.8° (Epoch: 17 January)

Event Time Altitude Azimuth Distance (km) Brightness Sun altitude
Exits shadow 03:21:20 47° 327° (NNW) 2,612 8.4 -36.1°
Maximum altitude 03:21:28 47° 329° (NNW) 2,612 8.4 -36.1°
Drops below altitude 10° 03:33:12 10° 42° (NE) 4,672 10.4 -34.1°
Sets 03:37:00 0° 48° (NE) 5,691 11.1 -33.4°
